Back to catalog

JCSAT 2B

AliveCommunicationsGEO
NORAD 41471·PAYLOAD·🇯🇵 Japan

Launched May 6, 2016 from Cape Canaveral Space Force Station

Loading…

TLE

FreshSource: Space-Track

Epoch: Sep 14, 2026, 14:19 UTC

1 41471U 16028A   26257.59719662  .00000000  00000-0  00000-0 0  9991
2 41471   0.0218 153.7969 0000619 357.8220 210.9473  1.00268833 38023

Track JCSAT 2B in real time with AllMySat

Download on the App Store